| time (UTC) | temp C | wind direction | speed KPH | gust KPH | rain 1hr cm | rain 24hr cm | rain mn cm | humidity % | barometer mb |
| 20260505091104 | 11 | 39 | 0.0 | 0.0 | 0.00 | 0.00 | 0.00 | 92 | 1011.1 |
| 20260505085104 | 11 | 39 | 0.0 | 0.0 | 0.00 | 0.00 | 0.00 | 92 | 1011.0 |
| 20260505084105 | 12 | 39 | 0.0 | 0.0 | 0.00 | 0.00 | 0.00 | 91 | 1010.9 |
| 20260505083105 | 12 | 39 | 0.0 | 0.0 | 0.00 | 0.00 | 0.00 | 91 | 1010.9 |
| 20260505082104 | 12 | 40 | 0.0 | 0.0 | 0.00 | 0.00 | 0.00 | 91 | 1010.8 |
| 20260505081104 | 12 | 40 | 0.0 | 0.0 | 0.00 | 0.00 | 0.00 | 91 | 1010.7 |
| 20260505080104 | 12 | 40 | 0.0 | 0.0 | 0.00 | 0.00 | 0.00 | 91 | 1010.7 |
| 20260505075104 | 12 | 40 | 0.0 | 0.0 | 0.00 | 0.00 | 0.00 | 92 | 1010.7 |
| 20260505074104 | 12 | 40 | 0.0 | 0.0 | 0.00 | 0.00 | 0.00 | 91 | 1010.5 |
| 20260505073104 | 12 | 40 | 0.0 | 0.0 | 0.00 | 0.00 | 0.00 | 91 | 1010.5 |
| 20260505072104 | 12 | 40 | 0.0 | 0.0 | 0.00 | 0.00 | 0.00 | 91 | 1010.4 |
| 20260505071104 | 12 | 40 | 0.0 | 0.0 | 0.00 | 0.00 | 0.00 | 91 | 1010.2 |
| 20260505070105 | 12 | 40 | 0.0 | 0.0 | 0.00 | 0.00 | 0.00 | 91 | 1010.2 |
| 20260505065104 | 12 | 40 | 0.0 | 0.0 | 0.00 | 0.00 | 0.00 | 89 | 1010.1 |
| 20260505064104 | 13 | 40 | 0.0 | 0.0 | 0.00 | 0.00 | 0.00 | 89 | 1010.0 |
| 20260505063104 | 13 | 40 | 0.0 | 0.0 | 0.00 | 0.00 | 0.00 | 89 | 1010.0 |
| 20260505062104 | 13 | 40 | 0.0 | 0.0 | 0.00 | 0.00 | 0.00 | 88 | 1009.8 |
| 20260505061104 | 13 | 40 | 0.0 | 0.0 | 0.00 | 0.00 | 0.00 | 87 | 1009.6 |
| 20260505060105 | 13 | 40 | 0.0 | 0.0 | 0.00 | 0.00 | 0.00 | 87 | 1009.6 |
| 20260505055104 | 13 | 40 | 0.0 | 0.0 | 0.00 | 0.00 | 0.00 | 86 | 1009.5 |
| 20260505054105 | 13 | 40 | 0.0 | 0.0 | 0.00 | 0.00 | 0.00 | 85 | 1009.3 |
| 20260505053105 | 13 | 40 | 0.0 | 0.0 | 0.00 | 0.00 | 0.00 | 84 | 1009.3 |
| 20260505052105 | 13 | 40 | 0.0 | 0.0 | 0.00 | 0.00 | 0.00 | 84 | 1009.1 |
| 20260505051105 | 13 | 40 | 0.0 | 0.0 | 0.00 | 0.00 | 0.00 | 83 | 1009.1 |
| 20260505050104 | 14 | 40 | 0.0 | 0.0 | 0.00 | 0.00 | 0.00 | 82 | 1009.1 |
| 20260505041105 | 15 | 40 | 0.0 | 0.0 | 0.00 | 0.00 | 0.00 | 80 | 1008.5 |
| 20260505040105 | 15 | 40 | 0.0 | 0.0 | 0.00 | 0.00 | 0.00 | 79 | 1008.5 |
| 20260505035105 | 15 | 40 | 0.0 | 0.0 | 0.00 | 0.00 | 0.00 | 80 | 1008.2 |
| 20260505034104 | 16 | 40 | 0.0 | 0.0 | 0.00 | 0.00 | 0.00 | 75 | 1008.0 |
| 20260505033104 | 18 | 40 | 0.0 | 0.0 | 0.00 | 0.00 | 0.00 | 72 | 1008.0 |
| 20260505032104 | 18 | 40 | 0.0 | 0.0 | 0.00 | 0.00 | 0.00 | 72 | 1008.0 |
| 20260505031104 | 18 | 40 | 0.0 | 0.0 | 0.00 | 0.00 | 0.00 | 71 | 1007.7 |
| 20260505030104 | 19 | 40 | 0.0 | 0.0 | 0.00 | 0.00 | 0.00 | 66 | 1007.7 |
| 20260505025104 | 19 | 40 | 0.0 | 0.0 | 0.00 | 0.00 | 0.00 | 65 | 1007.6 |
| 20260505024104 | 20 | 40 | 0.0 | 0.0 | 0.00 | 0.00 | 0.00 | 63 | 1007.5 |
| 20260505023104 | 20 | 40 | 0.0 | 0.0 | 0.00 | 0.00 | 0.00 | 63 | 1007.5 |
| 20260505022104 | 20 | 40 | 0.0 | 0.0 | 0.00 | 0.00 | 0.00 | 62 | 1007.5 |
| 20260505021105 | 20 | 40 | 0.0 | 0.0 | 0.00 | 0.00 | 0.00 | 62 | 1007.6 |
| 20260505020105 | 20 | 40 | 0.0 | 1.6 | 0.00 | 0.00 | 0.00 | 62 | 1007.6 |
| 20260505015104 | 21 | 40 | 0.0 | 4.8 | 0.00 | 0.00 | 0.00 | 62 | 1007.6 |
| 20260505014103 | 21 | 40 | 0.0 | 0.0 | 0.00 | 0.00 | 0.00 | 61 | 1007.6 |
| 20260505013104 | 21 | 40 | 0.0 | 4.8 | 0.00 | 0.00 | 0.00 | 61 | 1007.6 |
| 20260505012104 | 21 | 11 | 0.0 | 9.7 | 0.00 | 0.00 | 0.00 | 61 | 1007.6 |
| 20260505011104 | 21 | 120 | 0.0 | 4.8 | 0.00 | 0.00 | 0.00 | 61 | 1007.6 |
| 20260505010104 | 22 | 120 | 0.0 | 0.0 | 0.00 | 0.00 | 0.00 | 62 | 1007.6 |
| 20260505004104 | 22 | 120 | 0.0 | 0.0 | 0.00 | 0.00 | 0.00 | 63 | 1007.7 |
| 20260505003104 | 21 | 120 | 0.0 | 0.0 | 0.00 | 0.00 | 0.00 | 65 | 1007.7 |
| 20260505002103 | 21 | 120 | 0.0 | 0.0 | 0.00 | 0.00 | 0.00 | 64 | 1007.7 |
| 20260505000104 | 21 | 120 | 0.0 | 0.0 | 0.00 | 0.00 | 0.00 | 64 | 1007.7 |
| 20260504234105 | 21 | 120 | 1.6 | 4.8 | 0.00 | 0.00 | 0.00 | 63 | 1007.8 |
| 20260504233104 | 21 | 120 | 0.0 | 0.0 | 0.00 | 0.00 | 0.00 | 64 | 1007.8 |
| 20260504232104 | 20 | 120 | 0.0 | 4.8 | 0.00 | 0.00 | 0.00 | 69 | 1007.8 |
| 20260504230103 | 20 | 120 | 3.2 | 8.0 | 0.00 | 0.00 | 0.00 | 74 | 1007.9 |
| 20260504225104 | 20 | 120 | 0.0 | 4.8 | 0.00 | 0.00 | 0.00 | 72 | 1008.1 |
| 20260504224104 | 20 | 120 | 1.6 | 4.8 | 0.00 | 0.00 | 0.00 | 72 | 1008.2 |
| 20260504223104 | 20 | 120 | 3.2 | 4.8 | 0.00 | 0.00 | 0.00 | 73 | 1008.2 |
| 20260504222105 | 20 | 121 | 4.8 | 12.9 | 0.00 | 0.00 | 0.00 | 70 | 1008.4 |
| 20260504221104 | 20 | 121 | 4.8 | 11.3 | 0.00 | 0.00 | 0.00 | 73 | 1008.6 |
| 20260504213103 | 19 | 121 | 0.0 | 11.3 | 0.00 | 0.00 | 0.00 | 73 | 1008.9 |
| 20260504211104 | 19 | 120 | 0.0 | 8.0 | 0.00 | 0.00 | 0.00 | 74 | 1009.0 |
| 20260504210104 | 18 | 121 | 1.6 | 4.8 | 0.00 | 0.00 | 0.00 | 76 | 1009.0 |
| 20260504205104 | 18 | 121 | 1.6 | 4.8 | 0.00 | 0.00 | 0.00 | 78 | 1009.1 |
| 20260504204104 | 18 | 121 | 3.2 | 8.0 | 0.00 | 0.00 | 0.00 | 73 | 1009.1 |
| 20260504203104 | 19 | 121 | 4.8 | 12.9 | 0.00 | 0.00 | 0.00 | 74 | 1009.1 |
| 20260504200104 | 18 | 118 | 1.6 | 8.0 | 0.00 | 0.00 | 0.00 | 78 | 1009.1 |
| 20260504194104 | 18 | 154 | 0.0 | 1.6 | 0.00 | 0.00 | 0.00 | 75 | 1009.1 |
| 20260504193103 | 18 | 154 | 1.6 | 4.8 | 0.00 | 0.00 | 0.00 | 77 | 1009.4 |
| 20260504192108 | 17 | 154 | 0.0 | 3.2 | 0.00 | 0.00 | 0.00 | 79 | 1009.4 |
| 20260504191103 | 17 | 154 | 3.2 | 4.8 | 0.00 | 0.00 | 0.00 | 80 | 1009.6 |
| 20260504184104 | 17 | 167 | 1.6 | 4.8 | 0.00 | 0.00 | 0.00 | 77 | 1009.6 |
| 20260504183104 | 16 | 167 | 0.0 | 4.8 | 0.00 | 0.00 | 0.00 | 78 | 1009.6 |
| 20260504182103 | 16 | 167 | 0.0 | 4.8 | 0.00 | 0.00 | 0.00 | 80 | 1009.6 |
| 20260504181104 | 16 | 167 | 1.6 | 8.0 | 0.00 | 0.00 | 0.00 | 78 | 1009.6 |
| 20260504180103 | 16 | 167 | 1.6 | 4.8 | 0.00 | 0.00 | 0.00 | 78 | 1009.6 |
| 20260504175103 | 15 | 167 | 0.0 | 1.6 | 0.00 | 0.00 | 0.00 | 79 | 1009.6 |
| 20260504174103 | 15 | 167 | 0.0 | 4.8 | 0.00 | 0.00 | 0.00 | 81 | 1009.6 |
| 20260504172103 | 15 | 169 | 0.0 | 4.8 | 0.00 | 0.00 | 0.00 | 80 | 1009.6 |
| 20260504171104 | 15 | 170 | 1.6 | 4.8 | 0.00 | 0.00 | 0.00 | 82 | 1009.6 |
| 20260504160104 | 13 | 170 | 0.0 | 4.8 | 0.00 | 0.00 | 0.00 | 85 | 1009.2 |
| 20260504151104 | 13 | 278 | 0.0 | 0.0 | 0.00 | 0.00 | 0.00 | 82 | 1008.9 |
| 20260504150104 | 12 | 278 | 0.0 | 0.0 | 0.00 | 0.00 | 0.00 | 84 | 1008.8 |
| 20260504140104 | 10 | 278 | 0.0 | 0.0 | 0.00 | 0.00 | 0.00 | 88 | 1008.4 |
| 20260504130104 | 9 | 278 | 0.0 | 0.0 | 0.00 | 0.00 | 0.00 | 88 | 1008.0 |
| 20260504120104 | 10 | 278 | 0.0 | 0.0 | 0.00 | 0.00 | 0.00 | 85 | 1008.0 |
| 20260504110104 | 10 | 278 | 0.0 | 0.0 | 0.00 | 0.00 | 0.00 | 85 | 1008.0 |
| 20260504100104 | 11 | 278 | 0.0 | 0.0 | 0.00 | 0.00 | 0.00 | 80 | 1007.9 |